Location: Zagreb
(45.8000°N, 16.0000°E)
Time: 17:31:25
(UTC+01:00)

Tiros 1 despin weight - Pass Details

Date: 02 February 2020
Orbit: 594 x 642 km, 48.2° (Epoch: 25 February)

Event Time Altitude Azimuth Distance (km) Brightness Sun altitude
Rises 11:09:56 0° 277° (W) 2,855 ? 25.9°
Reaches altitude 10° 11:12:14 10° 281° (W) 1,959 ? 26.0°
Maximum altitude 11:16:42 64° 3° (N) 682 ? 26.2°
Drops below altitude 10° 11:21:15 10° 85° (E) 1,989 ? 26.3°
Sets 11:23:36 0° 89° (E) 2,903 ? 26.4°
